Weather in Novyy Yegorlyk

Russia / Rostov Oblast     46°23′30″N   41°52′38″E
temp.,
°C
wind,
m/s
gust,
m/s
humid.,
%
clouds,
%
prec.,
mm/h
press.,
hPa
HPBL,
m
27 november, sat
sat2700:00+2se512920 0.0 1022278
03:00+1se512940 0.0 1020267
06:00+1ese6139538 0.0 1019335
09:00+5se7118097 0.0 1019543
12:00+8se71065100 0.0 1018557
15:00+8se71161100 0.0 1017391
18:00+8se71373100 0.1 1016391
21:00+7se51280100 0.1 1016303
28 november, sun
sun2800:00+6se4984100 0.0 1015205
03:00+7se488599 0.4 1015160
06:00+7se3581100 0.2 101488
09:00+8se2273100 0.4 101537
12:00+10se3477100 1.6 1015124
15:00+10se5982100 1.7 1015237
18:00+9ese4107299 0.0 1015231
21:00+7ese4108071 0.0 1016184
29 november, mon
mon2900:00+7se41084100 0.0 1015198
03:00+7se41187100 0.0 1015255
06:00+7se588592 0.0 1014176
09:00+8ese51079100 0.0 1014235
12:00+12se71058100 0.0 1012333
15:00+13se5105699 0.1 1012323
18:00+12se71658100 0.0 1009326
21:00+12se71354100 0.1 1007279
30 november, tue
tue3000:00+11ese4764100 0.0 1005139
03:00+10se2266100 0.0 100533
06:00+12ssw61589100 0.8 1004651
09:00+13sw91783100 3.1 1004959
12:00+13wsw8167041 0.1 1004955
15:00+15wsw81364100 0.3 10031387
18:00+11w3579100 0.3 1002104
21:00+10s2283100 0.3 100036
1 december, wed
wed100:00+9ese3691100 0.1 994222
03:00+8ne3691100 14.5 994341
06:00+7wnw4990100 8.9 998653
09:00+3wnw81395100 12.6 1005694
12:00+6w1012606 0.2 10071154
15:00+6w711585 0.2 10081139
18:00+4w511694 0.0 1009540
21:00+3wsw512734 0.0 1011480